[[{"header":{"parameterUnit":"m.s-1","parameterCategory":1,"la1":30.2992,"la2":30.254,"lo1":-89.0895,"lo2":-89.0443,"dy":0.0025,"dx":0.0025,"nx":19,"ny":19,"refTime":"2026-03-26T09:00:00:Z","depth":0,"parameterNumber":2,"parameterNumberName":"U-component_of_WINDS"},"data":[0,0,0,1.2507,1.2509,1.2601,1.2602,1.2717,1.2718,0,0,0,0,0,0,0,0,0,0,0,1.2479,1.2479,1.2507,1.2509,1.2601,1.2602,1.2716,1.2718,0,0,0,0,0,0,0,0,0,0,0,1.2478,1.2479,1.248,1.2509,1.2601,1.2602,1.2716,1.2647,0,0,0,0,0,0,0,0,0,0,1.2558,1.2532,1.2479,1.248,1.251,1.2601,1.2602,1.2644,1.2652,1.2674,0,1.2694,0,1.2708,1.2725,1.2726,0,0,0,1.2509,1.2525,1.2551,1.248,1.2511,1.2601,1.256,1.2648,1.2657,1.2684,1.2696,1.27,1.271,1.2726,1.2727,1.2854,1.2855,0,0,1.2504,1.2495,1.2545,1.2556,1.2543,1.2557,1.2562,1.2654,1.2666,1.2696,1.2703,1.2712,1.2727,1.2728,1.2854,1.2854,0,0,0,1.2489,1.2491,1.2515,1.2552,1.2569,1.2559,1.2566,1.2662,1.267,1.2704,1.2713,1.2727,1.2729,1.2853,1.2854,1.2873,0,0,0,1.2486,1.2482,1.2512,1.2507,1.2567,1.2617,1.2572,1.2664,1.2674,1.2712,1.2727,1.273,1.2852,1.2853,1.2871,1.2883,0,0,0,1.2473,1.2481,1.2494,1.2507,1.2546,1.2615,1.2629,1.2666,1.268,1.2726,1.273,1.2852,1.2853,1.2869,1.2881,1.2913,0,0,0,1.2456,1.251,1.2494,1.2558,1.2545,1.2627,1.2629,1.269,1.2731,1.2728,1.2852,1.2854,1.2869,1.2879,1.2912,1.2939,1.295,0,0,1.2519,1.2518,1.2556,1.2544,1.2626,1.2613,1.2698,1.2745,1.2758,1.2821,1.2824,1.2872,1.2881,1.2913,1.3014,1.3022,0,0,0,1.2573,1.26,1.2624,1.2663,1.2701,1.2733,1.2768,1.2785,1.2839,1.2789,1.2893,1.2899,1.2918,1.2931,1.2939,1.2955,1.286,1.286,1.286,1.2649,1.2662,1.2726,1.275,1.2788,1.2823,1.2855,1.2884,1.2887,1.2911,1.293,1.2989,1.3005,1.301,1.3027,1.2946,1.2946,1.2946,1.2946,1.2743,1.2783,1.2784,1.2847,1.286,1.2912,1.2947,1.2947,1.2997,1.2977,1.2994,1.297,1.3019,1.3034,1.2947,1.2947,1.2947,1.2947,1.2947,1.2794,1.2815,1.2835,1.2892,1.2935,1.2957,1.3004,1.3015,1.3025,1.3042,1.3062,1.3062,1.3062,1.3051,1.3051,1.3052,1.3052,1.3052,1.3052,1.2838,1.286,1.2899,1.2943,1.2968,1.3004,1.3038,1.3064,1.3094,1.3098,1.3098,1.3097,1.3022,1.3002,1.3055,1.3055,1.3054,1.3054,1.3054,1.2927,1.2909,1.2969,1.2995,1.3045,1.3086,1.3098,1.3149,1.3171,1.3194,1.3189,1.3132,1.3131,1.3125,1.3109,1.3187,1.3187,1.3187,1.3187,1.297,1.297,1.3033,1.3073,1.3114,1.3131,1.3197,1.3224,1.3248,1.3263,1.3253,1.3232,1.3226,1.3229,1.3221,1.3206,1.3307,1.3307,1.3307,1.3024,1.3029,1.3084,1.3108,1.3148,1.3181,1.3243,1.3288,1.3312,1.3312,1.3274,1.3269,1.3235,1.3224,1.3223,1.321,1.3183,0,0]},{"header":{"parameterUnit":"m.s-1","parameterCategory":1,"la1":30.2992,"la2":30.254,"lo1":-89.0895,"lo2":-89.0443,"dy":0.0025,"dx":0.0025,"nx":19,"ny":19,"refTime":"2026-03-26T09:00:00:Z","depth":0,"parameterNumber":3,"parameterNumberName":"V-component_of_WINDS"},"data":[0,0,0,2.271,2.2711,2.2735,2.2735,2.2777,2.2778,0,0,0,0,0,0,0,0,0,0,0,2.271,2.2711,2.271,2.2711,2.2735,2.2735,2.2777,2.2778,0,0,0,0,0,0,0,0,0,0,0,2.271,2.2711,2.2712,2.2711,2.2735,2.2735,2.2777,2.2754,0,0,0,0,0,0,0,0,0,0,2.2729,2.2737,2.2711,2.2712,2.2711,2.2735,2.2735,2.2753,2.2756,2.2771,0,2.2788,0,2.2783,2.2781,2.2781,0,0,0,2.2705,2.2735,2.2735,2.2712,2.2711,2.2735,2.2722,2.2755,2.2758,2.2775,2.2788,2.2789,2.2784,2.2782,2.2782,2.2892,2.2892,0,0,2.2704,2.2719,2.2733,2.2737,2.2735,2.2722,2.2723,2.2756,2.2771,2.2788,2.279,2.2785,2.2782,2.2782,2.2891,2.2892,0,0,0,2.2704,2.2718,2.2717,2.2736,2.2739,2.2722,2.2724,2.277,2.2768,2.2791,2.2785,2.2782,2.2783,2.289,2.2891,2.2946,0,0,0,2.2703,2.2718,2.2716,2.2726,2.2739,2.2755,2.2738,2.2766,2.2769,2.2785,2.2782,2.2783,2.2889,2.2891,2.2942,2.2969,0,0,0,2.2706,2.2719,2.2725,2.2727,2.2738,2.2754,2.2754,2.2766,2.2766,2.2781,2.2784,2.2888,2.289,2.2939,2.2964,2.3003,0,0,0,2.2715,2.2773,2.2726,2.2788,2.2738,2.2788,2.2754,2.279,2.2809,2.2783,2.2889,2.2891,2.2938,2.2961,2.2999,2.3039,2.3056,0,0,2.2796,2.2783,2.2819,2.2777,2.284,2.2783,2.2852,2.2855,2.2842,2.2876,2.2878,2.2943,2.2964,2.3002,2.3148,2.3162,0,0,0,2.285,2.2876,2.2889,2.2908,2.2912,2.2917,2.2908,2.2909,2.2936,2.2863,2.2967,2.2978,2.3,2.3018,2.303,2.3048,2.29,2.29,2.2899,2.2988,2.2969,2.3026,2.3009,2.3028,2.3018,2.3031,2.303,2.3005,2.303,2.304,2.3131,2.3152,2.3161,2.318,2.3058,2.3058,2.3058,2.3059,2.3107,2.3141,2.3105,2.3148,2.3126,2.3162,2.3153,2.3134,2.3163,2.3122,2.314,2.3097,2.3177,2.3193,2.3063,2.3062,2.3061,2.3061,2.3061,2.3196,2.3209,2.3209,2.3234,2.3256,2.3236,2.3266,2.3245,2.3226,2.3244,2.3252,2.3251,2.3248,2.3249,2.3249,2.325,2.325,2.325,2.325,2.329,2.3288,2.3316,2.3324,2.3333,2.3343,2.3332,2.334,2.3344,2.3326,2.3326,2.3299,2.3189,2.3162,2.3255,2.3254,2.3254,2.3253,2.3253,2.3419,2.3386,2.343,2.3439,2.3446,2.3469,2.3441,2.346,2.3464,2.3479,2.3447,2.3369,2.3354,2.3344,2.3322,2.3451,2.3451,2.3451,2.3451,2.3495,2.3485,2.3524,2.354,2.3554,2.3533,2.3582,2.3574,2.356,2.3561,2.3539,2.3508,2.3499,2.3489,2.3476,2.3455,2.3615,2.3615,2.3615,2.3573,2.3563,2.361,2.3596,2.36,2.3603,2.3649,2.3669,2.3646,2.3621,2.3562,2.3555,2.3503,2.3488,2.3463,2.3443,2.3404,0,0]}]]